Reno, NV

1:20 PM PST on February 14, 2016 (GMT -0800)
Reno - Stead

Weather History for KRTS - November, 2012

Change the Weather History Date:

Wednesday, November 14, 2012

  Actual Average (KRNO) Record (KRNO)
Temperature  
Mean Temperature 42 °F 43 °F  
Max Temperature 59 °F 56 °F 74 °F (1906)
Min Temperature 24 °F 31 °F 4 °F (1985)
Degree Days  
Heating Degree Days 24 22  
Month to date heating degree days 272  
Since 1 July heating degree days 708  
Cooling Degree Days 0 0  
Month to date cooling degree days 0  
Year to date cooling degree days 839  
Moisture  
Dew Point 26 °F    
Average Humidity 62    
Maximum Humidity 93    
Minimum Humidity 29    
Precipitation  
Precipitation 0.00 in 0.03 in 0.57 in (1909)
Month to date precipitation 0.34  
Year to date precipitation 5.89  
Snow  
Snow - 0.10 in 10.50 in (1909)
Month to date snowfall 1.1  
Since 1 July snowfall 1.5  
Since 1 September snowfall 1.5  
Snow Depth -    
Sea Level Pressure  
Sea Level Pressure 30.21 in    
Wind  
Wind Speed 2 mph ()    
Max Wind Speed 8 mph    
Max Gust Speed -    
Visibility 10.0 miles    
Events      
T = Trace of Precipitation, MM = Missing Value Source: Averaged Metar Reports

Daily Weather History Graph

Daily Weather History Graph

Search for Another Location

Airport or City:

Trip Planner

Search our weather history database for the weather conditions in past years. The results will help you decide how hot, cold, wet, or windy it might be!

Date:

Astronomy

Nov. 14, 2012 Rise Set
Actual Time 6:43 AM PST 4:44 PM PST
Civil Twilight 6:14 AM PST 5:13 PM PST
Nautical Twilight 5:42 AM PST 5:45 PM PST
Astronomical Twilight 5:10 AM PST 6:17 PM PST
Moon 7:38 AM PST 5:38 PM PST
Length of Visible Light 10h 58m
Length of Day
10h 00m
New Moon, 1% of the Moon is Illuminated
Nov 14
New Moon
Nov 20
First Quarter
Nov 28
Full
Dec 6
Last Quarter
Dec 13
New

Hourly Weather History & Observations

Time (PST) Temp. Windchill Dew Point Humidity Pressure Visibility Wind Dir Wind Speed Gust Speed Precip Events Conditions
12:10 AM 32.0 °F 28.7 °F 24.8 °F 75% 30.23 in 10.0 mi North 3.5 mph - N/A   Clear
12:30 AM 32.0 °F - 26.6 °F 80% 30.23 in 10.0 mi Calm Calm - N/A   Clear
12:50 AM 30.2 °F 26.7 °F 24.8 °F 80% 30.22 in 10.0 mi NW 3.5 mph - N/A   Clear
1:10 AM 28.4 °F - 23.0 °F 80% 30.22 in 10.0 mi Calm Calm - N/A   Clear
1:30 AM 28.4 °F 24.6 °F 24.8 °F 86% 30.22 in 10.0 mi North 3.5 mph - N/A   Clear
1:50 AM 32.0 °F 28.7 °F 26.6 °F 80% 30.22 in 10.0 mi North 3.5 mph - N/A   Clear
2:10 AM 32.0 °F 28.7 °F 26.6 °F 80% 30.23 in 10.0 mi WNW 3.5 mph - N/A   Clear
2:30 AM 30.2 °F - 26.6 °F 86% 30.23 in 10.0 mi Calm Calm - N/A   Clear
2:50 AM 28.4 °F 23.3 °F 24.8 °F 86% 30.22 in 10.0 mi North 4.6 mph - N/A   Clear
3:10 AM 32.0 °F - 26.6 °F 80% 30.22 in 10.0 mi Calm Calm - N/A   Clear
3:30 AM 28.4 °F - 24.8 °F 86% 30.22 in 10.0 mi Calm Calm - N/A   Clear
3:50 AM 26.6 °F - 24.8 °F 93% 30.21 in 10.0 mi Calm Calm - N/A   Clear
4:10 AM 28.4 °F - 24.8 °F 86% 30.22 in 10.0 mi Calm Calm - N/A   Clear
4:30 AM 28.4 °F - 24.8 °F 86% 30.22 in 10.0 mi Calm Calm - N/A   Clear
4:50 AM 30.2 °F - 26.6 °F 86% 30.23 in 10.0 mi Calm Calm - N/A   Clear
5:10 AM 26.6 °F - 19.4 °F 74% 30.23 in 10.0 mi Calm Calm - N/A   Clear
5:30 AM 24.8 °F - 19.4 °F 80% 30.23 in 10.0 mi Calm Calm - N/A   Clear
5:50 AM 24.8 °F - 21.2 °F 86% 30.23 in 10.0 mi Calm Calm - N/A   Clear
6:10 AM 26.6 °F 22.6 °F 23.0 °F 86% 30.22 in 10.0 mi North 3.5 mph - N/A   Clear
6:30 AM 28.4 °F 24.6 °F 26.6 °F 93% 30.22 in 10.0 mi NNW 3.5 mph - N/A   Clear
6:50 AM 26.6 °F - 23.0 °F 86% 30.23 in 10.0 mi Calm Calm - N/A   Partly Cloudy
7:10 AM 26.6 °F 20.0 °F 23.0 °F 86% 30.23 in 10.0 mi SW 5.8 mph - N/A   Mostly Cloudy
7:30 AM 28.4 °F - 24.8 °F 86% 30.23 in 10.0 mi Calm Calm - N/A   Mostly Cloudy
7:50 AM 28.4 °F - 24.8 °F 86% 30.24 in 10.0 mi Calm Calm - N/A   Mostly Cloudy
8:10 AM 32.0 °F - 26.6 °F 80% 30.24 in 10.0 mi Calm Calm - N/A   Scattered Clouds
8:30 AM 32.0 °F - 26.6 °F 80% 30.24 in 10.0 mi Calm Calm - N/A   Partly Cloudy
8:50 AM 35.6 °F - 28.4 °F 75% 30.24 in 10.0 mi Calm Calm - N/A   Clear
9:10 AM 39.2 °F - 28.4 °F 65% 30.24 in 10.0 mi Calm Calm - N/A   Clear
9:30 AM 41.0 °F - 30.2 °F 65% 30.24 in 10.0 mi Calm Calm - N/A   Clear
9:50 AM 44.6 °F 43.1 °F 32.0 °F 61% 30.23 in 10.0 mi SW 3.5 mph - N/A   Clear
10:10 AM 46.4 °F 45.2 °F 32.0 °F 57% 30.24 in 10.0 mi South 3.5 mph - N/A   Clear
10:30 AM 50.0 °F - 32.0 °F 50% 30.23 in 10.0 mi ESE 3.5 mph - N/A   Clear
10:50 AM 50.0 °F - 32.0 °F 50% 30.23 in 10.0 mi SE 4.6 mph - N/A   Clear
11:10 AM 51.8 °F - 32.0 °F 47% 30.22 in 10.0 mi SE 4.6 mph - N/A   Clear
11:30 AM 53.6 °F - 30.2 °F 41% 30.22 in 10.0 mi South 4.6 mph - N/A   Clear
11:50 AM 55.4 °F - 30.2 °F 38% 30.21 in 10.0 mi SSE 4.6 mph - N/A   Clear
12:10 PM 55.4 °F - 28.4 °F 36% 30.20 in 10.0 mi Calm Calm - N/A   Clear
12:30 PM 55.4 °F - 28.4 °F 36% 30.20 in 10.0 mi Calm Calm - N/A   Clear
12:50 PM 57.2 °F - 28.4 °F 33% 30.19 in 10.0 mi Calm Calm - N/A   Clear
1:10 PM 57.2 °F - 28.4 °F 33% 30.18 in 10.0 mi SE 4.6 mph - N/A   Clear
1:30 PM 57.2 °F - 28.4 °F 33% 30.18 in 10.0 mi SE 5.8 mph - N/A   Clear
1:50 PM 57.2 °F - 26.6 °F 31% 30.17 in 10.0 mi NNE 4.6 mph - N/A   Clear
2:10 PM 57.2 °F - 26.6 °F 31% 30.16 in 10.0 mi SE 4.6 mph - N/A   Clear
2:30 PM 59.0 °F - 26.6 °F 29% 30.16 in 10.0 mi SE 5.8 mph - N/A   Clear
2:50 PM 57.2 °F - 26.6 °F 31% 30.16 in 10.0 mi Calm Calm - N/A   Clear
3:10 PM 57.2 °F - 26.6 °F 31% 30.16 in 10.0 mi SSE 3.5 mph - N/A   Clear
3:30 PM 57.2 °F - 26.6 °F 31% 30.17 in 10.0 mi Calm Calm - N/A   Clear
3:50 PM 59.0 °F - 26.6 °F 29% 30.16 in 10.0 mi SW 3.5 mph - N/A   Clear
4:10 PM 57.2 °F - 26.6 °F 31% 30.17 in 10.0 mi East 5.8 mph - N/A   Clear
4:30 PM 53.6 °F - 28.4 °F 38% 30.16 in 10.0 mi ENE 5.8 mph - N/A   Clear
4:50 PM 51.8 °F - 26.6 °F 38% 30.17 in 10.0 mi ESE 4.6 mph - N/A   Clear
5:10 PM 48.2 °F - 26.6 °F 43% 30.17 in 10.0 mi ESE 8.1 mph - N/A   Clear
5:30 PM 46.4 °F - 26.6 °F 46% 30.18 in 10.0 mi Calm Calm - N/A   Clear
5:50 PM 44.6 °F - 26.6 °F 49% 30.18 in 10.0 mi Calm Calm - N/A   Clear
6:10 PM 41.0 °F 39.0 °F 24.8 °F 53% 30.18 in 10.0 mi NNW 3.5 mph - N/A   Clear
6:30 PM 41.0 °F 37.1 °F 26.6 °F 57% 30.19 in 10.0 mi North 5.8 mph - N/A   Clear
6:50 PM 41.0 °F 38.0 °F 24.8 °F 53% 30.19 in 10.0 mi North 4.6 mph - N/A   Clear
7:10 PM 37.4 °F 34.9 °F 23.0 °F 56% 30.19 in 10.0 mi North 3.5 mph - N/A   Clear
7:30 PM 37.4 °F 32.8 °F 24.8 °F 60% 30.20 in 10.0 mi North 5.8 mph - N/A   Clear
7:50 PM 35.6 °F 29.9 °F 23.0 °F 60% 30.20 in 10.0 mi North 6.9 mph - N/A   Clear
8:10 PM 37.4 °F 33.8 °F 24.8 °F 60% 30.21 in 10.0 mi North 4.6 mph - N/A   Clear
8:30 PM 37.4 °F 33.8 °F 24.8 °F 60% 30.21 in 10.0 mi NNW 4.6 mph - N/A   Clear
8:50 PM 32.0 °F 25.6 °F 19.4 °F 60% 30.21 in 10.0 mi NNW 6.9 mph - N/A   Clear
9:10 PM 32.0 °F 26.4 °F 21.2 °F 64% 30.22 in 10.0 mi North 5.8 mph - N/A   Clear
9:30 PM 32.0 °F 26.4 °F 21.2 °F 64% 30.22 in 10.0 mi North 5.8 mph - N/A   Clear
9:50 PM 28.4 °F - 21.2 °F 74% 30.22 in 10.0 mi Calm Calm - N/A   Clear
10:10 PM 28.4 °F - 21.2 °F 74% 30.21 in 10.0 mi Calm Calm - N/A   Clear
10:30 PM 30.2 °F 26.7 °F 19.4 °F 64% 30.21 in 10.0 mi NNW 3.5 mph - N/A   Clear
10:50 PM 28.4 °F 23.3 °F 19.4 °F 69% 30.21 in 10.0 mi North 4.6 mph - N/A   Clear
11:10 PM 26.6 °F 19.1 °F 17.6 °F 69% 30.21 in 10.0 mi North 6.9 mph - N/A   Clear
11:30 PM 32.0 °F - 24.8 °F 75% 30.21 in 10.0 mi Calm Calm - N/A   Clear
11:50 PM 32.0 °F - 24.8 °F 75% 30.21 in 10.0 mi Calm Calm - N/A   Clear